Location: Telluride
(37.9375°N, 107.8123°W)
Time: 19:01:34
(UTC+00:00)

Daily predictions for brighter satellites

Satellite Brightness Start Highest point End
(mag) Time Altitude Azimuth Time Altitude Azimuth Time Altitude Azimuth
Cosmos 1464 Rocket 4.4 12:17:19 37° W 12:17:19 37° W 12:22:22 10° SSW
DELTA 2 R/B (1) 4.3 12:13:45 22° SW 12:17:00 48° SSE 12:22:20 10° E
Cosmos 841 Rocket 3.9 12:17:54 40° WSW 12:17:54 40° WSW 12:22:10 10° S
H-2A R/B 2.5 12:15:53 10° N 12:19:36 83° WNW 12:23:20 10° SSW
Cosmos 1933 3.1 12:19:49 65° NW 12:20:13 71° W 12:24:11 10° S
Landsat 5 4.1 12:24:50 10° SSE 12:29:16 63° ENE 12:33:44 10° N
Cosmos 2098 Rocket 2.9 12:29:18 10° S 12:32:44 73° E 12:37:00 10° N
Envisat 2.9 12:28:11 10° N 12:33:14 66° WNW 12:38:15 10° SSW
Cosmos 921 Rocket 3.6 12:29:40 10° N 12:34:02 57° ENE 12:38:24 10° SSE
Cosmos 1766 Rocket 4.0 12:31:12 10° S 12:35:30 63° E 12:39:48 10° NNE
Cosmos 2369 Rocket 2.1 12:30:05 10° SSW 12:35:40 83° WNW 12:41:17 10° NNE
ADEOS 3.7 12:37:20 10° NNE 12:42:35 76° ESE 12:47:47 10° S
Cosmos 968 Rocket 3.7 12:38:55 10° SW 12:43:51 45° WNW 12:48:47 10° N
CZ-2C R/B 4.0 12:39:36 10° NNE 12:44:20 49° E 12:49:13 10° S
Cosmos 1151 Rocket 3.3 12:41:37 10° N 12:46:00 72° E 12:50:21 10° SSE
Centaur D-1A AC-31 3.5 12:43:56 10° SW 12:46:35 16° S 12:51:02 10° SE
CZ-4B R/B 4.2 12:42:47 10° N 12:47:07 54° WNW 12:51:28 10° SSW
COSMO-SKYMED 1 2.6 12:46:55 10° S 12:51:09 54° W 12:55:25 10° NNW
Meteor 2-13 Rocket 4.5 12:45:24 10° SSW 12:51:22 54° W 12:57:20 10° N
OAO 3 Rocket 4.2 12:50:09 19° WSW 12:53:01 36° SSW 12:57:31 10° SE
Cosmos 1328 Rocket 4.1 12:49:01 10° N 12:53:21 59° E 12:57:38 10° SSE
APEX 3.3 12:53:02 32° W 12:53:29 34° WSW 12:56:31 10° S
Iridium 2 3.8 12:51:14 10° SSW 12:54:54 50° W 12:58:36 10° N
CENTAUR R/B 3.5 12:57:04 19° WNW 12:59:55 26° NW 13:05:38 10° NNE
Cosmos 1656 Rocket 3.6 13:04:17 10° SW 13:09:36 60° WNW 13:14:58 10° NNE
CZ-2C R/B 3.1 13:05:30 10° SSW 13:10:40 41° W 13:15:48 10° NNW
Cosmos 2082 Rocket 4.0 13:11:26 11° W 13:11:26 11° W 13:12:59 10° WSW
CZ-4C R/B 3.0 13:08:42 10° S 13:11:46 46° W 13:14:48 10° NNW
Cosmos 1943 Rocket 3.4 13:08:55 13° W 13:11:53 19° NW 13:15:54 10° N
NOSS 3-2 (C) 4.3 13:08:14 13° W 13:12:18 27° NW 13:17:35 10° NNE
Cosmos 1408 Rocket 3.7 13:08:14 10° S 13:12:31 76° E 13:16:50 10° N
Cosmos 2279 Rocket 3.9 13:06:23 10° NNW 13:12:33 71° W 13:18:41 10° S
Cosmos 1867 4.3 13:13:53 12° NW 13:18:22 35° WSW 13:23:14 10° S
Nadezhda 4 Rocket 4.2 13:12:28 10° S 13:18:34 76° E 13:24:46 10° N
DMSP B5D2-2 4.0 13:16:17 10° S 13:21:31 80° WSW 13:26:45 10° NNW
Genesis I 3.5 13:17:38 10° NW 13:21:36 54° WSW 13:25:32 10° SSE
H-2A R/B 4.1 13:17:29 10° NE 13:21:47 30° E 13:26:05 10° SSE
CZ-4B R/B 3.5 13:19:34 10° SE 13:22:29 28° ENE 13:25:23 10° NNE
Cosmos 1812 3.5 13:21:01 10° NNW 13:24:23 30° W 13:27:44 10° SSW
ATLAS 3B R/B 3.8 13:18:49 10° S 13:24:55 46° ESE 13:31:17 10° NE
FALCON 9 R/B 3.8 13:05:44 11° W 13:27:15 67° SSW 13:32:59 10° ESE
Cosmos 1782 4.4 13:24:53 10° NW 13:27:21 16° W 13:29:48 10° SW
NOAA 11 4.4 13:22:31 10° N 13:27:45 48° WNW 13:32:59 10° SW
Meteor 2-6 Rocket 4.2 13:23:14 10° NNW 13:28:30 54° W 13:33:43 10° S
Cosmos 1862 4.2 13:26:45 10° SW 13:30:07 27° WNW 13:33:31 10° NNW
Cosmos 1515 Rocket 3.6 13:27:13 10° N 13:31:36 86° E 13:35:56 10° S
Meteor 1-31 Rocket 4.4 13:29:53 10° NNW 13:32:08 15° WNW 13:34:23 10° WSW
Cosmos 1503 Rocket 4.3 13:30:15 10° SW 13:35:16 47° WNW 13:40:24 10° N
CZ-4B R/B 3.1 13:33:42 10° N 13:37:01 37° WNW 13:40:20 10° SW
Meteor 1-10 Rocket 4.2 13:32:45 10° NNW 13:38:15 64° W 13:43:41 10° S
SJ 16-02 1.6 13:35:41 10° S 13:40:02 75° ESE 13:44:25 10° NNE
USA 215 3.6 13:37:02 10° SSE 13:43:22 53° SW 13:49:45 10° NW
BREEZE-M DEB (TANK) 4.3 13:43:47 10° NW 13:56:35 40° WSW 14:00:51 10° S
